Location: ????????
(55.4000°N, 39.1167°E)
Time: 02:17:32
(UTC+00:00)

Cosmos 2228 Rocket - Pass Details

Date: 19 May 2025
Orbit: 612 x 647 km, 82.5° (Epoch: 13 June)

Event Time Altitude Azimuth Distance (km) Brightness Sun altitude
Exits shadow 23:42:28 - 182° (S) 2,289 5.5 -8.8°
Reaches altitude 10° 23:43:04 10° 181° (S) 2,048 5.2 -8.7°
Maximum altitude 23:47:36 71° 98° (E) 690 3.4 -8.4°
Drops below altitude 10° 23:52:09 10° 15° (NNE) 2,057 7.1 -8.0°
Sets 23:54:25 0° 14° (NNE) 2,968 8.0 -7.8°
